CAPE
0 0 0 0 0 0 0 0 0 0 0 0 0 0 0 0 0 0 0 0 0 0 0 0 0 0 0 0 0 0 0 0 0 0 0 0 0 0 0 0 0 0 0
0 0 0 0 0 0 0 0 0 0 0 0 0 0 0 0 0 0 0 0 0 0 0 0 0 0 0 0 0 0 0 0 0 0 0 0 0 0 0 0 0 0 0
0 0 0 0 0 0 0 0 0 0 0 0 0 0 0 0 0 0 0 0 0 0 0 0 0 0 0 0 0 0 0 0 0 0 0 0 0 0 0 0 0 0 0
0 0 0 0 0 0 0 0 0 0 0 0 0 0 0 0 0 0 0 0 0 0 0 0 0 0 0 0 0 0 0 0 0 0 0 0 0 0 0 0 0 0 0
0 0 0 0 0 0 0 0 0 0 0 0 0 0 0 0 0 0 0 0 0 0 0 0 0 0 0 0 0 0 0 0 0 0 0 0 0 0 0 0 0 0 0
0 0 0 0 0 0 0 0 0 0 0 0 0 0 0 0 0 0 0 0 0 0 0 0 0 0 0 0 0 0 0 0 0 0 0 0 0 0 0 0 0 0 0
0 0 0 0 0 0 0 0 0 0 0 0 0 0 0 0 0 0 0 0 0 0 0 0 0 0 0 0 0 2 0 0 0 0 0 0 0 0 0 0 0 0 0
0 0 0 0 0 0 0 0 0 0 0 0 0 0 0 0 0 1 0 0 0 0 0 0 0 0 0 0 0 0 0 0 0 0 0 0 0 0 0 0 0 0 0
0 0 0 0 0 0 0 0 0 1 0 0 0 0 0 0 0 1 0 0 0 0 0 0 0 0 0 0 0 0 0 0 0 0 0 0 0 0 0 0 0 0 0
0 0 0 0 0 0 0 0 0 0 2 0 0 0 0 0 0 3 0 0 0 0 0 0 0 0 0 2 0 0 0 0 0 0 0 0 0 0 0 0 0 0 0
0 0 0 0 0 0 0 0 0 0 3 0 0 0 0 0 0 4 4 0 0 0 0 0 0 0 0 2 0 0 0 0 0 0 0 0 0 0 0 0 0 0 0
0 0 0 0 0 0 0 0 0 0 3 0 0 0 0 0 0 4 5 1 0 0 0 0 0 0 0 2 0 0 0 0 0 0 0 0 0 0 0 0 0 0 0
0 0 0 0 0 0 0 0 0 0 4 0 0 0 0 0 0 1 5 3 4 0 0 0 0 0 0 1 0 0 0 0 0 0 0 0 0 0 0 0 0 0 0
0 0 0 0 0 0 0 0 0 1 4 0 0 0 0 0 0 0 0 0 0 0 0 0 0 0 0 0 0 0 0 0 0 0 0 0 0 0 0 0 0 0 0
0 0 0 0 0 0 0 0 0 0 1 3 0 0 0 0 0 0 0 0 0 0 0 0 0 0 0 0 0 0 0 0 0 0 0 0 0 0 0 0 0 0 0
0 0 0 0 0 0 0 0 0 0 0 1 16 2 0 0 0 1 4 6 3 2 0 0 0 0 0 0 0 0 0 0 0 0 0 0 0 0 0 0 0 0 0
0 0 0 0 0 0 0 0 0 0 0 1 12 12 7 0 1 1 6 8 6 2 0 0 0 0 0 0 0 0 0 0 0 0 0 0 0 0 0 0 0 0 0
0 0 0 0 0 0 0 0 0 0 0 0 6 7 7 6 2 4 8 12 0 2 0 0 0 0 0 0 0 0 0 0 0 0 0 0 0 0 0 0 0 0 0
0 0 0 0 0 0 0 0 0 0 0 1 6 3 0 7 8 6 9 0 0 0 0 0 0 0 0 0 0 0 0 0 0 0 0 0 0 0 0 0 0 0 0
0 0 0 0 0 0 0 0 0 0 1 2 8 1 0 0 0 0 0 0 0 0 0 0 0 0 0 0 0 0 0 0 0 0 0 0 0 0 0 0 0 0 0
0 0 0 0 0 0 0 0 0 0 2 3 6 0 1 0 0 0 0 0 0 0 0 0 0 0 0 0 0 0 0 0 0 0 0 0 0 0 0 0 0 0 0
0 0 0 0 0 0 0 0 0 1 2 7 4 0 17 0 0 0 0 0 0 0 0 0 0 0 0 0 0 0 0 0 0 0 0 0 0 0 0 0 0 0 0
0 0 0 0 0 0 0 0 0 1 0 0 0 0 1 0 0 0 0 0 0 0 0 0 0 0 0 0 0 0 0 0 0 0 0 0 0 0 0 0 0 0 0
0 0 0 0 0 0 0 0 0 0 0 0 0 0 0 0 0 0 0 0 0 0 0 0 0 0 0 0 0 0 0 0 0 0 0 0 0 0 0 0 0 0 0
0 0 0 0 0 0 0 0 0 0 0 0 0 0 0 0 0 0 0 0 0 0 0 0 0 0 0 0 0 0 0 0 0 0 0 0 0 0 0 0 0 0 0
0 0 0 0 0 0 0 0 0 0 0 0 0 0 0 0 0 0 0 0 0 0 0 0 0 0 0 0 0 0 0 0 0 0 0 0 0 0 0 0 0 0 0
CIN
0 0 0 0 0 0 0 0 0 0 0 0 0 0 0 0 0 0 0 0 0 0 0 0 0 0 0 0 0 0 0 0 0 0 0 0 0 0 0 0 0 0 0
0 0 0 0 0 0 0 0 0 0 0 0 0 0 0 0 0 0 0 0 0 0 0 0 0 0 0 0 0 0 0 0 0 0 0 0 0 0 0 0 0 0 0
0 0 0 0 0 0 0 0 0 0 0 0 0 0 0 0 0 0 0 0 0 0 0 0 0 0 0 0 0 0 0 0 0 0 0 0 0 0 0 0 0 0 0
0 0 0 0 0 0 0 0 0 0 0 0 0 0 0 0 0 0 0 0 0 0 0 0 0 0 0 0 0 0 0 0 0 0 0 0 0 0 0 0 0 0 0
0 0 0 0 0 0 0 0 0 0 0 0 0 0 0 0 0 0 0 0 0 0 0 0 0 0 0 0 0 0 0 0 0 0 0 0 -1 0 0 0 0 0 0
0 0 0 0 0 0 0 0 0 0 0 0 0 0 0 0 0 0 0 0 0 0 0 0 0 0 0 0 0 0 0 0 0 0 0 0 0 0 0 0 0 0 0
0 0 0 0 0 0 0 0 0 0 0 0 0 0 0 0 0 0 0 0 0 0 0 0 0 0 0 0 0 -1 0 0 0 0 0 0 0 0 0 0 0 0 0
0 0 0 0 0 0 0 0 0 0 0 0 0 0 0 0 0 0 0 0 0 0 0 0 0 0 0 0 0 0 0 0 0 0 0 0 0 0 0 0 0 0 0
0 0 0 0 0 0 0 0 0 0 0 0 0 0 0 0 0 0 0 0 0 0 0 0 0 0 0 0 0 0 0 0 0 0 0 0 0 0 0 0 0 0 0
0 0 0 0 0 0 0 0 0 0 0 0 0 0 0 0 0 0 0 0 0 0 0 0 0 0 0 0 0 0 0 0 0 0 0 0 0 0 0 0 0 0 0
0 0 0 0 0 0 0 0 0 0 0 0 0 0 0 0 0 0 0 0 0 0 0 0 0 0 0 0 0 0 0 0 0 0 0 0 0 0 0 0 0 0 0
0 0 0 0 0 0 0 0 0 0 0 0 0 0 0 0 0 0 0 0 0 0 0 0 0 0 0 0 0 0 0 0 0 0 0 0 0 0 0 0 0 0 0
0 0 0 0 0 0 0 0 0 0 0 0 0 0 0 0 0 0 0 0 0 0 0 0 0 0 0 -1 0 0 0 0 0 0 0 0 0 0 0 0 0 0 0
0 0 0 0 0 0 0 0 0 0 0 0 0 0 0 0 0 0 0 0 0 0 0 0 0 0 0 0 0 0 0 0 0 0 0 0 0 0 0 0 0 0 0
0 0 0 0 0 0 0 0 0 0 0 0 0 0 0 0 0 0 0 0 0 0 0 0 0 0 0 0 0 0 0 0 0 0 0 0 0 0 0 0 0 0 0
0 0 0 0 0 0 0 0 0 0 0 0 0 0 0 0 0 0 0 0 0 0 0 0 0 0 0 0 0 0 0 0 0 0 0 0 0 0 0 0 0 0 0
0 0 0 0 0 0 0 0 0 0 0 0 0 0 0 0 0 0 0 0 0 0 0 0 0 0 0 0 0 0 0 0 0 0 0 0 0 0 0 0 0 0 0
0 0 0 0 0 0 0 0 0 0 0 0 -1 0 0 0 0 0 0 0 0 0 0 0 0 0 0 0 0 0 0 0 0 0 0 0 0 0 0 0 0 0 0
0 0 0 0 0 0 0 0 0 0 0 0 -1 0 0 0 0 0 0 0 0 0 0 0 0 0 0 0 0 0 0 0 0 0 0 0 0 0 0 0 0 0 0
0 0 0 0 0 0 0 0 0 0 0 0 0 0 0 0 0 0 0 0 0 0 0 0 0 0 0 0 0 0 0 0 0 0 0 0 0 0 0 0 0 0 0
0 0 0 0 0 0 0 0 0 0 0 0 0 0 0 0 0 0 0 0 0 0 0 0 0 0 0 0 0 0 0 0 0 0 0 0 0 0 0 0 0 0 0
0 0 0 0 0 0 0 0 0 0 0 0 0 0 0 0 0 0 0 0 0 0 0 0 0 0 0 0 0 0 0 0 0 0 0 0 0 0 0 0 0 0 0
0 0 0 0 0 0 0 0 0 0 0 0 0 0 0 0 0 0 0 0 0 0 0 0 0 0 0 0 0 0 0 0 0 0 0 0 0 0 0 0 0 0 0
0 0 0 0 0 0 0 0 0 0 0 0 0 0 0 0 0 0 0 0 0 0 0 0 0 0 0 0 0 0 0 0 0 0 0 0 0 0 0 0 0 0 0
0 0 0 0 0 0 0 0 0 0 0 0 0 0 0 0 0 0 0 0 0 0 0 0 0 0 0 0 0 0 0 0 0 0 0 0 0 0 0 0 0 0 0
0 0 0 0 0 0 0 0 0 0 0 0 0 0 0 0 0 0 0 0 0 0 0 0 0 0 0 0 0 0 0 0 0 0 0 0 0 0 0 0 0 0 0
Wind_Speed
8 7 8 9 9 9 6 5 4 3 6 6 8 9 8 8 7 6 6 6 6 5 4 5 5 5 3 3 3 3 2 2 6 2 2 2 3 4 3 3 3 5 5
6 6 6 7 8 8 8 7 5 6 5 6 6 7 8 9 9 9 8 8 7 7 7 6 6 4 5 4 3 4 3 2 4 9 3 2 3 3 1 1 2 3 4
7 7 8 7 7 9 8 8 6 5 5 5 7 8 9 9 10 9 9 8 8 7 7 7 6 6 5 3 3 4 3 2 3 5 4 2 3 2 2 2 1 3 3
6 7 8 8 7 7 9 7 7 4 4 5 6 6 7 9 8 8 8 8 7 6 6 6 6 6 6 6 4 5 4 4 3 3 4 3 2 2 1 0 0 3 3
5 5 6 7 5 4 7 7 6 6 4 4 5 5 6 8 8 10 9 9 8 6 5 6 6 6 8 7 4 4 5 3 3 3 3 2 2 3 3 1 1 1 1
3 5 6 7 6 6 8 9 6 5 5 3 6 7 8 7 14 18 13 9 8 9 8 5 6 6 8 10 8 9 7 5 3 3 3 4 4 4 3 1 1 1 1
4 4 5 4 6 5 6 9 9 6 3 5 5 5 8 8 16 19 17 9 9 8 8 8 6 4 6 5 9 9 8 7 5 4 4 4 5 4 3 2 1 1 1
5 5 4 4 4 5 6 7 9 5 5 5 5 6 6 7 16 19 18 9 8 8 8 9 9 7 6 7 7 6 6 5 5 4 3 4 4 4 3 1 2 1 0
6 5 5 4 4 4 8 8 9 10 6 6 4 7 8 7 17 19 18 9 8 8 7 8 10 9 13 15 7 7 8 4 5 9 8 11 9 7 4 2 2 2 2
7 7 4 4 4 4 5 8 7 8 10 6 7 7 9 9 17 20 18 8 9 7 6 6 13 11 18 18 8 8 9 8 6 3 5 6 6 6 6 2 2 3 2
6 5 5 5 5 5 6 7 8 9 11 8 7 7 9 9 11 21 22 10 9 8 8 7 7 18 19 20 14 8 7 7 11 4 4 4 3 4 3 3 3 2 1
5 5 5 5 4 5 6 8 8 8 11 9 7 7 6 7 12 20 23 20 16 10 10 8 8 20 19 20 13 14 13 11 6 5 5 4 3 4 2 3 3 3 3
5 6 4 5 6 6 7 8 7 8 9 8 6 7 6 6 7 19 23 22 19 9 7 12 18 21 19 16 16 17 11 7 6 5 5 3 4 4 3 4 4 4 6
7 6 5 6 6 6 6 6 6 7 9 9 7 8 7 7 8 8 11 12 15 10 12 11 14 15 13 9 10 11 6 6 7 6 4 3 3 3 2 2 2 2 2
5 5 5 5 6 7 7 7 7 9 10 9 8 9 9 9 9 14 14 12 11 12 10 8 8 8 8 6 6 5 5 5 6 4 4 4 3 3 2 2 2 2 2
6 6 5 5 5 6 7 9 15 21 24 25 25 15 9 16 19 25 24 23 22 24 7 8 9 9 10 10 10 8 5 7 5 5 5 5 5 4 3 2 1 2 3
9 7 5 6 6 6 6 7 10 11 19 21 24 25 23 14 20 23 25 25 24 25 8 9 10 11 9 10 10 9 9 7 5 6 5 6 5 3 5 4 2 2 2
8 10 7 6 6 7 7 8 8 9 10 9 15 19 22 22 19 22 25 23 15 16 7 10 11 11 10 10 10 9 6 7 6 6 6 6 6 6 3 7 6 3 3
7 7 6 6 7 8 8 8 9 11 10 10 8 11 16 21 20 23 27 13 14 13 10 10 10 10 10 10 9 8 9 8 8 8 6 6 7 6 3 4 5 5 6
6 11 9 7 8 8 8 9 10 10 11 10 10 8 7 11 11 12 13 12 13 12 11 11 10 10 10 10 9 9 8 8 8 7 7 7 7 7 6 6 7 6 3
6 6 10 8 9 9 9 10 11 10 10 11 10 9 15 11 10 10 11 11 11 11 12 11 10 10 10 10 10 9 9 8 8 8 7 7 8 7 6 5 6 6 6
7 8 8 9 9 10 10 11 11 11 11 11 8 9 21 11 9 9 10 11 10 9 8 9 9 10 10 11 10 10 10 10 9 9 8 8 8 6 7 6 7 5 6
8 10 10 9 10 11 10 8 8 9 6 3 2 4 7 5 7 9 10 10 9 8 8 8 9 8 8 9 9 8 9 10 10 10 10 10 9 8 8 8 8 7 6
8 9 9 6 3 3 3 2 2 3 3 4 4 5 5 6 6 7 6 6 7 6 7 8 8 11 9 8 7 8 7 7 8 10 13 11 10 10 8 8 8 8 8
2 1 1 1 2 2 3 3 4 4 5 5 6 6 7 7 8 8 7 6 7 7 7 7 6 10 11 12 10 10 11 12 9 11 8 10 12 13 10 8 9 8 8
3 3 3 3 4 4 4 5 6 6 7 7 7 8 8 8 8 8 7 8 8 8 10 8 10 13 13 10 11 12 13 13 12 12 9 9 10 9 9 10 12 8 10
Wind_Direction
2 2 4 356 355 349 342 307 267 205 195 188 185 181 181 175 173 173 162 163 166 163 163 167 162 155 149 138 122 98 94 111 116 89 125 108 63 53 8 43 34 27 7
336 345 2 357 352 356 346 336 310 239 210 198 183 190 184 185 174 178 174 172 173 176 176 164 169 158 161 156 138 118 105 72 114 135 131 116 79 50 319 12 37 46 23
341 350 345 0 359 345 335 328 317 267 218 200 181 193 186 186 179 179 171 173 175 180 173 168 169 159 166 153 139 126 115 90 87 126 126 106 97 77 31 304 52 20 21
353 348 345 345 346 338 324 322 319 271 215 202 204 192 188 172 174 170 166 171 171 182 169 163 169 169 169 163 152 143 128 111 100 103 103 107 103 121 113 224 87 69 25
350 334 325 319 320 318 327 317 318 299 243 210 188 185 169 178 178 171 176 167 175 174 172 165 169 166 175 170 140 157 137 133 136 133 123 130 142 162 182 172 198 153 131
324 314 308 323 327 329 336 325 313 307 276 203 208 188 185 197 189 182 173 171 173 176 182 164 162 172 180 173 154 163 160 154 143 124 152 164 176 167 177 159 162 160 211
293 291 303 311 320 316 326 326 316 299 268 239 220 187 205 199 194 184 177 170 171 179 173 168 162 165 162 171 188 177 176 178 164 152 146 168 169 171 166 158 145 118 109
277 282 286 288 300 325 325 318 314 292 259 247 228 217 211 199 202 187 175 165 167 172 176 171 169 165 164 167 174 174 173 177 177 132 148 140 134 156 161 102 113 92 83
275 273 274 263 293 323 321 312 307 306 271 241 226 213 213 205 197 191 172 166 168 169 170 170 169 168 178 176 162 167 180 180 152 130 138 134 134 132 143 118 146 179 146
246 258 258 248 255 275 281 297 292 290 280 242 235 221 215 214 198 192 179 168 169 167 163 173 174 168 179 185 165 161 175 182 148 121 132 108 100 99 96 77 113 175 140
232 239 246 260 272 257 277 277 282 288 281 247 226 227 216 206 200 197 191 183 179 173 183 183 184 184 184 189 175 171 177 167 166 129 113 105 81 97 72 56 50 152 108
220 229 247 246 252 273 269 283 279 280 277 249 229 228 217 203 204 204 202 197 183 178 188 180 176 183 186 188 174 181 169 150 131 144 146 146 123 127 111 93 78 72 78
208 234 240 255 261 260 266 277 285 285 271 251 227 228 217 203 200 211 204 198 193 189 171 171 170 178 180 185 172 181 149 151 150 163 170 153 162 160 133 116 103 88 80
211 231 235 245 262 252 257 257 260 267 267 253 232 227 218 201 198 202 202 196 191 181 161 161 168 167 168 156 159 173 156 166 168 168 154 118 113 106 130 154 125 119 92
230 241 241 240 248 266 254 257 256 255 255 265 238 225 215 211 204 200 198 193 184 175 140 138 151 155 156 158 158 146 148 151 162 153 138 146 123 124 136 197 122 115 90
251 249 241 238 240 257 273 282 265 266 267 261 252 230 222 223 206 204 201 197 183 166 142 154 165 170 173 173 177 168 173 174 170 155 148 153 151 150 143 141 129 113 116
242 252 252 248 248 254 255 261 285 292 279 273 247 236 225 220 216 206 204 193 180 167 170 171 173 174 173 174 177 181 183 181 146 163 162 162 143 137 149 151 138 110 112
237 245 244 248 246 251 254 257 259 266 277 271 248 234 228 221 214 204 200 185 178 180 180 172 174 173 173 175 177 176 151 151 171 169 161 158 162 156 142 166 164 143 135
239 246 235 242 244 246 251 253 254 259 258 265 250 227 220 215 210 205 196 193 182 183 181 178 177 174 174 172 172 166 160 171 170 169 168 162 164 156 145 152 138 142 126
244 247 243 247 250 246 245 247 250 249 252 254 242 222 200 196 201 199 195 192 189 187 184 181 176 170 165 165 162 160 157 158 161 171 173 168 166 169 166 156 156 151 159
243 242 235 241 242 240 240 240 243 244 245 246 234 214 199 199 197 193 185 187 187 183 182 177 170 165 165 165 162 164 167 170 167 165 170 172 162 164 159 156 145 130 131
240 242 236 238 241 240 238 238 240 241 242 240 221 208 202 198 190 177 177 182 183 182 177 171 167 168 168 166 164 165 170 172 164 162 169 167 162 151 153 148 143 130 142
236 239 239 240 240 247 248 243 243 242 229 188 171 180 190 180 176 172 170 168 163 156 156 155 150 148 149 152 152 165 169 176 174 166 168 163 162 159 161 158 155 144 150
248 242 242 232 213 215 205 178 94 85 97 90 84 84 93 93 91 89 93 107 112 105 139 146 150 150 146 146 151 163 159 158 162 170 160 161 159 155 153 151 155 148 142
251 216 158 163 170 143 104 86 78 77 78 81 84 82 82 84 85 80 76 79 84 92 86 95 106 125 132 134 139 136 133 140 144 146 149 152 153 154 154 150 147 137 130
39 55 63 67 69 73 79 81 76 74 76 75 75 75 79 81 80 81 83 87 88 83 85 84 93 100 103 104 112 119 129 134 137 140 140 140 144 144 143 140 142 141 143